Weather in La Colle

Monaco     43°43′58″N   7°25′03″E
temp.,
°C
wind,
m/s
gust,
m/s
humid.,
%
clouds,
%
prec.,
mm/h
press.,
hPa
HPBL,
m
8 may, sat
sat823:00+16w4576100 0.0 101258
02:00+16n2268100 0.0 101325
05:00+16nw336429 0.0 101425
08:00+16se116767 0.0 101723
11:00+15ssw216898 0.0 1018112
14:00+15se22725 0.0 1019318
17:00+16se11655 0.0 1018215
20:00+15ne11653 0.0 101890
9 may, sun
sun923:00+16n12705 0.0 101912
02:00+16nne22705 0.0 101914
05:00+16nne22715 0.0 101834
08:00+16ne227076 0.0 101823
11:00+16ese467775 0.0 1018193
14:00+16e6975100 0.0 1017272
17:00+17e697694 0.0 1016213
20:00+17e5773100 0.0 101694
10 may, mon
mon1023:00+17ne5773100 0.1 101576
02:00+17ene686842 0.1 1014102
05:00+17e81174100 0.1 1015236
08:00+16ene3483100 0.4 101476
11:00+17ene5683100 0.3 1014108
14:00+17ene1187100 2.3 101385
17:00+16nnw2393100 7.8 1014122
20:00+16ne118798 14.3 101313
11 may, tue
tue1123:00+16ene2287100 0.6 101435
02:00+16e3588100 2.4 1012109
05:00+15ssw4596100 6.2 1012292
08:00+14ssw5699100 14.6 1011325
11:00+15sw238061 4.5 1010201
14:00+16ssw238091 6.8 1009380
17:00+16w12734 0.6 1007218
20:00+16sw22763 1.2 1006139
12 may, wed
wed1223:00+15n227599 0.1 100547
02:00+15ne457291 0.1 1005231
05:00+14wnw44712 0.0 1006209
08:00+14w35690 0.0 1007316
11:00+15sse21705 0.0 1008208
14:00+14se22735 0.0 1007187
17:00+16e55681 0.0 1006274
20:00+16e557612 0.0 1007188